www.pogodaiklimat.ru

Погода и климат >> Архив погоды >> Беларусь >> Столбцы


ПОГОДА в Столбцах

  • Прогноз погоды в Столбцах
  • Монитор погоды в Столбцах
  • Климат города

АРХИВ ПОГОДЫ в Столбцах

Время (UTC), дата Ветер
(напр.,м/с)
 
Видим.   Явления Облачность Т
(С)
Тd
(С)
f
(%)
Тe
(С)
Тes
(С)
Комфортность P
(гПа)
Po
(гПа)
Тmin
(С)
Tmax
(С)
R
(мм)
R24
(мм)
S
(см)
03 13.02 штиль 0 н/о н/о -2.0 -2.4 97 -3 -3 1017.0 992.9 -2.1
06 13.02 ЮВ 2 6000 м дымка 10/10 300 м
[St]
-2.2 -2.8 96 -6 -6 1018.0 996.2 -2.2 0.2 10
09 13.02 штиль 0 6000 м слабый снег 10/10 500 м
[Frnb Ns]
-1.2 -2.8 89 -2 -2 1019.2 997.4
12 13.02 штиль 0 7000 м слабый снег 10/10 300 м
[Frnb Ns]
+0.4 -2.0 84 -1 -1 1018.8 997.2
15 13.02 штиль 0 6000 м слабый снег 10/10 270 м
[Frnb Ns]
-0.3 -1.6 91 -2 -2 1018.9 997.2
18 13.02 штиль 0 4200 м дымка {снег} 10/10 240 м
[St]
-2.0 -2.8 94 -3 -3 1019.6 997.8 +0.7 0.0 10
21 13.02 штиль 0 н/о н/о -3.6 -5.7 85 -5 -5 1020.0 995.7
00 14.02 штиль 0 н/о н/о -6.1 -8.1 86 -7 -7 1021.0 996.4
03 14.02 штиль 0 н/о н/о -6.2 -7.7 89 -7 -7 1021.0 996.4 -6.6
06 14.02 В 1 5000 м дымка 10/10 270 м
[St]
-6.0 -7.5 89 -8 -8 1022.1 999.9 -6.6 10
09 14.02 В 1 6000 м дымка 10/10 360 м
[St]
-4.9 -6.9 86 -7 -7 1023.3 1001.1
12 14.02 В 1 6000 м дымка 9/9 500 м
[St]
-4.7 -7.5 81 -7 -7 1023.8 1001.6
15 14.02 штиль 0 7000 м дымка 9/9 570 м
[St]
-4.8 -7.2 83 -6 -6 1024.6 1002.4
18 14.02 штиль 0 6000 м дымка 10/10 330 м
[St]
-5.5 -7.5 86 -6 -6 1025.9 1003.6 -4.0
21 14.02 В 1 н/о н/о -6.5 -8.6 85 -9 -9 1027.0 1002.3
00 15.02 штиль 0 н/о н/о -7.8 -9.1 90 -9 -9 1027.0 1002.1
03 15.02 штиль 0 н/о н/о -8.7 -9.5 94 -9 -9 1028.0 1003.0 -8.8
06 15.02 штиль 0 5000 м дымка 8/0
[Ci fib]
-9.8 -10.3 96 -10 -10 1028.7 1006.0 -9.9 10
09 15.02 ЮВ 3 7000 м дымка 10/10 420 м
[St]
-6.6 -8.3 88 -12 -12 1029.5 1007.1
12 15.02 ЮВ 2 9000 м дымка 9/5 600 м
[Sc diur, vesp Ci fib]
-4.9 -8.1 78 -9 -8 1028.9 1006.6
15 15.02 ЮВ 2 6000 м дымка 10/10 360 м
[St]
-5.0 -7.9 80 -9 -9 1028.8 1006.5
18 15.02 ЮВ 1 4200 м дымка 10/10 300 м
[St]
-6.1 -7.9 87 -8 -8 1028.9 1006.5 -3.4 9
21 15.02 ЮВ 2 н/о н/о -6.0 -7.7 88 -10 -10 1029.0 1004.3
00 16.02 ЮВ 2 н/о н/о -5.8 -7.3 89 -10 -10 1028.0 1003.3
03 16.02 ЮВ 2 н/о н/о -5.3 -6.3 93 -10 -10 1027.0 1002.4 -6.2
06 16.02 ЮВ 1 4400 м дымка 10/10 300 м
[St]
-4.9 -5.4 96 -7 -7 1025.7 1003.5 -6.2 9
09 16.02 ЮВ 2 4600 м слабый снег 10/10 360 м
[Frnb Ns]
-3.2 -4.3 92 -7 -7 1024.8 1002.7
12 16.02 Ю 3 5000 м дымка {снег} 10/10 420 м
[St]
-1.6 -3.0 90 -7 -7 1023.5 1001.6
15 16.02 ЮВ 2 4700 м дымка {снег} 10/10 450 м
[St]
-1.3 -2.6 91 -5 -5 1022.3 1000.5
18 16.02 ЮВ 2 4200 м слабый снег 10/10 400 м
[Frnb Ns]
-1.4 -2.1 95 -5 -5 1022.1 1000.3 -0.8 0.2 9
21 16.02 Ю 1 н/о н/о -1.0 -1.8 94 -3 -3 1022.0 997.9
00 17.02 ЮЗ 1 н/о н/о -1.2 -1.3 99 -4 -4 1022.0 997.9
03 17.02 штиль 0 н/о н/о -1.4 -1.5 99 -3 -3 1022.0 997.9 -1.5
06 17.02 ЮЗ 1 6000 м дымка 9/9 700 м
[Sc]
-1.1 -1.5 97 -3 -3 1021.0 999.2 -1.5 0.9 9
09 17.02 ЮЗ 3 7000 м слабый дождь со снегом 10/10 240 м
[Frnb Ns]
+0.3 -0.4 95 -5 -5 1019.2 997.6
12 17.02 ЮЗ 3 8000 м дымка {снег} 10/10 360 м
[St]
+0.3 -1.0 91 -4 -4 1018.5 996.9
15 17.02 З 3 7000 м дымка 9/9 750 м
[Sc]
+1.1 -2.0 80 -3 -3 1018.2 996.6
18 17.02 СЗ 3 4200 м дымка 9/9 800 м
[Sc]
0.0 -1.9 87 -5 -5 1018.8 997.1 +1.2 0.0 6
21 17.02 З 3 н/о н/о -1.1 -3.9 81 -6 -6 1019.0 994.9
00 18.02 СЗ 3
{10}
н/о н/о -2.3 -4.9 82 -7 -7 1020.0 995.8
03 18.02 СЗ 2 н/о н/о -3.1 -5.4 84 -7 -7 1021.0 996.7 -3.1
06 18.02 СЗ 3 5000 м дымка 10/10 270 м
[St]
-3.4 -5.7 84 -9 -9 1021.0 999.0 -3.4 6
09 18.02 СЗ 4 6000 м дымка 10/10 330 м
[St]
-3.0 -5.8 81 -9 -9 1021.5 999.5
12 18.02 СЗ 3 4200 м слабый снег 10/10 360 м
[Frnb Ns]
-2.7 -5.7 80 -8 -8 1022.2 1000.2
15 18.02 СЗ 3 4300 м слабый снег 10/10 300 м
[Frnb Ns]
-2.9 -5.4 83 -8 -8 1023.1 1001.1
18 18.02 СЗ 3 5000 м в посл. час снег 9/9 540 м
[St]
-3.5 -5.5 86 -9 -9 1024.3 1002.2 -2.5 0.3
21 18.02 СЗ 3 н/о н/о -4.2 -6.6 83 -10 -10 1025.0 1000.5
00 19.02 штиль 0 н/о н/о -5.5 -6.4 93 -7 -7 1024.0 999.4
03 19.02 З 2 н/о н/о -4.3 -4.8 96 -9 -9 1023.0 998.6 -5.5
06 19.02 З 1 4400 м 10 баллов -3.6 -4.0 97 -6 -6 1023.0 998.6 -5.5 0.6 7
09 19.02 З 2 4800 м 10 баллов -2.2 -3.2 93 -6 -6 1024.0 999.7
12 19.02 СЗ 2 5000 м 10 баллов -1.4 -3.1 88 -5 -5 1024.0 999.8
15 19.02 штиль 0 5000 м 10 баллов -1.9 -3.6 88 -3 -3 1024.0 999.8
18 19.02 штиль 0 4100 м дымка 10 баллов -2.4 -3.5 92 -4 -4 1024.0 999.7 -1.2 0.5 7
21 19.02 штиль 0 н/о н/о -2.8 -3.2 97 -4 -4 1024.0 999.7

 

Местоположение метеостанции Столбцы (Минская область, Беларусь): широта 53.48 долгота 26.73 высота над уровнем моря 190 м.

В архиве по умолчанию представлена погода в Столбцах за последнюю неделю. Архивные данные за месяц целиком и за предыдущие месяцы, начиная с января 2011 года, Вы можете получить, выбрав интересующий диапазон дат из раскрывающегося списка и нажав кнопку "Ввод!".

Внимание! Время в таблицах - всемирное. Для получения местного времени необходимо прибавить поправку, которая в Столбцах равна 3 ч.

Смотрите также архив погоды в соседних городах и на ближайших метеорологических станциях:

Погода в Новогрудке (Гродненская область, Беларусь) (60 км)
Погода в Барановичах (Брестская область, Беларусь) (64 км)
Погода в Воложине (Минская область, Беларусь) (69 км)
Погода в Слуцке (Минская область, Беларусь) (74 км)
Погода в Минске (город Минск, Беларусь) (78 км)
Погода в Ганцевичах (Брестская область, Беларусь) (83 км)
Погода в Марьиной Горке (Минская область, Беларусь) (93 км)
Погода в Лиде (Гродненская область, Беларусь) (104 км)
Погода в Вилейке (Минская область, Беларусь) (116 км)
Погода в Ошмянах (Гродненская область, Беларусь) (118 км)

Пояснения к столбцам:

Ветер - указаны скорость ветра в м/с - средняя за 10 мин, порывы в срок и между сроками (в фигурных скобках) и направление, откуда дует ветер: С - северный, СВ - северо-восточный, В - восточный, ЮВ - юго-восточный, Ю - южный, ЮЗ - юго-западный, З - западный, СЗ - северо-западный.
Видимость - горизонтальная дальность видимости в метрах или километрах. При видимости от 1 до 10 км при отсутствии осадков обычно наблюдается дымка, при ухудшении видимости до 1 км и менее - туман. В сухую погоду видимость может ухудшаться дымом, пылью или мглою.
Явления - указаны атмосферные явления, наблюдавшиеся в срок или в последний час перед сроком; фигурными скобками обозначены явления, наблюдавшиеся между сроками (за 1-3 часа до срока); квадратными скобками обозначены град или гололедные отложения с указанием их диаметра в мм.
Облачность - указаны через наклонную черту общая и нижняя облачность в баллах и высота нижней границы облаков в метрах; квадратными скобками обозначены формы облаков: Ci - перистые, Cs - перисто-слоистые, Cc - перисто-кучевые, Ac - высококучевые, As - высокослоистые, Sc - слоисто-кучевые, Ns - слоисто-дождевые, Cu - кучевые, Cb - кучево-дождевые. Подробнее классификацию облаков см. в Атласе облаков (PDF).
T - Температура воздуха - температура, измеренная на высоте 2 м над землей.
Td - Температура точки росы - температура, при понижении до которой содержащийся в воздухе водяной пар достигнет насыщения.
f - Относительная влажность воздуха - влажноcть воздуха, измеренная на высоте 2 м над землей.
Te - Эффективная температура - температура, которую ощущает одетый по сезону человек в тени. Характеристика душности погоды. При расчете учитывается влияние влажности воздуха и скорости ветра на теплоощущения человека.
Tes - Эффективная температура на солнце - температура, которую ощущает человек, с поправкой на солнечный нагрев. Характеристика знойности погоды. Зависит от высоты солнца над горизонтом, облачности и скорости ветра. Ночью, в пасмурную погоду, а также при ветре 12 м/с и более поправка равна нулю.
P - Атмосферное давление - приведенное к уровню моря атмосферное давление.
Po - Атмосферное давление - измеренное на уровне метеостанции атмосферное давление.
Tmin - Минимальная температура - минимум температуры воздуха на высоте 2 м над землей.
Tmax - Максимальная температура - максимум температуры воздуха на высоте 2 м над землей.
R - Количество осадков - Количество выпавших осадков за период времени, мм. При наведении курсора мыши на число - период времени, за который выпало указанное количество осадков.
R24 - Количество осадков - Количество выпавших осадков за 24 часа, мм.
S - Снежный покров - Высота снежного покрова, см. При наведении курсора мыши на число - состояние снежного покрова и степень покрытия местности в баллах.